Time,TemperatureF,DewpointF,PressureIn,WindDirection,WindDirectionDegrees,WindSpeedMPH,WindSpeedGustMPH,Humidity,HourlyPrecipIn,Conditions,Clouds,dailyrainin,SolarRadiationWatts/m^2,SoftwareType,DateUTC
2013-03-19 00:02:00,27.0,23.0,-100.00,South,181,2.0,4.0,84,0.00,,,0.17,0.000000,,2013-03-19 06:02:00,
2013-03-19 00:12:00,27.0,22.0,-100.00,WSW,252,1.0,6.0,82,0.00,,,0.17,0.000000,,2013-03-19 06:12:00,
2013-03-19 00:42:00,27.0,22.0,-100.00,WSW,252,1.0,6.0,82,0.00,,,0.17,0.000000,,2013-03-19 06:42:00,
2013-03-19 00:52:00,27.0,22.0,-100.00,WSW,252,1.0,6.0,82,0.00,,,0.17,0.000000,,2013-03-19 06:52:00,
2013-03-19 01:02:00,27.0,22.0,-100.00,WSW,252,1.0,6.0,82,0.00,,,0.17,0.000000,,2013-03-19 07:02:00,
2013-03-19 01:12:00,25.0,21.0,-100.00,South,174,2.0,4.0,85,0.00,,,0.17,0.000000,,2013-03-19 07:12:00,
2013-03-19 01:42:00,25.0,21.0,-100.00,South,174,2.0,4.0,85,0.00,,,0.17,0.000000,,2013-03-19 07:42:00,
2013-03-19 01:52:00,25.0,21.0,-100.00,South,174,2.0,4.0,85,0.00,,,0.17,0.000000,,2013-03-19 07:52:00,
2013-03-19 02:02:00,25.0,21.0,-100.00,South,174,2.0,4.0,85,0.00,,,0.17,0.000000,,2013-03-19 08:02:00,
2013-03-19 02:12:00,24.0,22.0,-100.00,SSW,197,2.0,5.0,90,0.00,,,0.17,0.000000,,2013-03-19 08:12:00,
2013-03-19 02:33:00,24.0,22.0,-100.00,SSW,197,2.0,5.0,90,0.00,,,0.17,0.000000,,2013-03-19 08:33:00,
2013-03-19 02:43:00,24.0,22.0,-100.00,SSW,197,2.0,5.0,90,0.00,,,0.17,0.000000,,2013-03-19 08:43:00,
2013-03-19 02:52:00,24.0,22.0,-100.00,SSW,197,2.0,5.0,90,0.00,,,0.17,0.000000,,2013-03-19 08:52:00,
2013-03-19 03:02:00,24.0,22.0,-100.00,SSW,197,2.0,5.0,90,0.00,,,0.17,0.000000,,2013-03-19 09:02:00,
2013-03-19 03:12:00,22.0,20.0,-100.00,ENE,71,0.0,4.0,93,0.00,,,0.16,0.000000,,2013-03-19 09:12:00,
2013-03-19 03:43:00,22.0,20.0,-100.00,ENE,71,0.0,4.0,93,0.00,,,0.16,0.000000,,2013-03-19 09:43:00,
2013-03-19 03:53:00,22.0,20.0,-100.00,ENE,71,0.0,4.0,93,0.00,,,0.16,0.000000,,2013-03-19 09:53:00,
2013-03-19 04:03:00,22.0,20.0,-100.00,ENE,71,0.0,4.0,93,0.00,,,0.16,0.000000,,2013-03-19 10:03:00,
2013-03-19 04:33:00,20.0,18.0,-100.00,WSW,241,0.0,4.0,93,0.00,,,0.13,0.000000,,2013-03-19 10:33:00,
2013-03-19 04:42:00,20.0,18.0,-100.00,WSW,241,0.0,4.0,93,0.00,,,0.13,0.000000,,2013-03-19 10:42:00,
2013-03-19 04:53:00,20.0,18.0,-100.00,WSW,241,0.0,4.0,93,0.00,,,0.13,0.000000,,2013-03-19 10:53:00,
2013-03-19 05:02:00,20.0,18.0,-100.00,WSW,241,0.0,4.0,93,0.00,,,0.13,0.000000,,2013-03-19 11:02:00,
2013-03-19 05:11:00,20.0,18.0,-100.00,WSW,241,0.0,4.0,93,0.00,,,0.13,0.000000,,2013-03-19 11:11:00,
2013-03-19 05:12:00,18.0,16.0,-100.00,SSW,202,1.0,3.0,93,0.00,,,0.08,0.000000,,2013-03-19 11:12:00,
2013-03-19 05:33:00,18.0,16.0,-100.00,SSW,202,1.0,3.0,93,0.00,,,0.08,0.000000,,2013-03-19 11:33:00,
2013-03-19 05:43:00,18.0,16.0,-100.00,SSW,202,1.0,3.0,93,0.00,,,0.08,0.000000,,2013-03-19 11:43:00,
2013-03-19 05:52:00,18.0,16.0,-100.00,SSW,202,1.0,3.0,93,0.00,,,0.08,0.000000,,2013-03-19 11:52:00,
2013-03-19 06:02:00,18.0,16.0,-100.00,SSW,202,1.0,3.0,93,0.00,,,0.08,0.000000,,2013-03-19 12:02:00,
2013-03-19 07:12:00,14.0,12.0,-100.00,NE,45,0.0,2.0,90,-99.99,,,0.03,0.000000,,2013-03-19 13:12:00,
2013-03-19 07:33:00,14.0,12.0,-100.00,NE,45,0.0,2.0,90,-99.99,,,0.03,0.000000,,2013-03-19 13:33:00,
2013-03-19 07:42:00,14.0,12.0,-100.00,NE,45,0.0,2.0,90,-99.99,,,0.03,0.000000,,2013-03-19 13:42:00,
2013-03-19 07:52:00,14.0,12.0,-100.00,NE,45,0.0,2.0,90,-99.99,,,0.03,0.000000,,2013-03-19 13:52:00,
2013-03-19 08:02:00,14.0,12.0,-100.00,NE,45,0.0,2.0,90,-99.99,,,0.03,0.000000,,2013-03-19 14:02:00,
2013-03-19 08:12:00,13.0,10.0,-100.00,East,90,1.0,2.0,89,0.00,,,0.02,3.000000,,2013-03-19 14:12:00,
2013-03-19 08:42:00,13.0,10.0,-100.00,East,90,1.0,2.0,89,0.00,,,0.02,3.000000,,2013-03-19 14:42:00,
2013-03-19 08:52:00,13.0,10.0,-100.00,East,90,1.0,2.0,89,0.00,,,0.02,3.000000,,2013-03-19 14:52:00,
2013-03-19 09:02:00,13.0,10.0,-100.00,East,90,1.0,2.0,89,0.00,,,0.02,3.000000,,2013-03-19 15:02:00,
2013-03-19 09:12:00,17.0,15.0,-100.00,SE,141,0.0,2.0,90,0.00,,,0.01,26.000000,,2013-03-19 15:12:00,
2013-03-19 09:44:00,17.0,15.0,-100.00,SE,141,0.0,2.0,90,0.00,,,0.01,26.000000,,2013-03-19 15:44:00,
2013-03-19 09:53:00,17.0,15.0,-100.00,SE,141,0.0,2.0,90,0.00,,,0.01,26.000000,,2013-03-19 15:53:00,
2013-03-19 10:03:00,17.0,15.0,-100.00,SE,141,0.0,2.0,90,0.00,,,0.01,26.000000,,2013-03-19 16:03:00,
2013-03-19 10:12:00,28.0,22.0,-100.00,SW,225,1.0,3.0,78,0.00,,,0.01,157.000000,,2013-03-19 16:12:00,
2013-03-19 10:44:00,28.0,22.0,-100.00,SW,225,1.0,3.0,78,0.00,,,0.01,157.000000,,2013-03-19 16:44:00,
2013-03-19 10:54:00,28.0,22.0,-100.00,SW,225,1.0,3.0,78,0.00,,,0.01,157.000000,,2013-03-19 16:54:00,
2013-03-19 11:02:00,28.0,22.0,-100.00,SW,225,1.0,3.0,78,0.00,,,0.01,157.000000,,2013-03-19 17:02:00,
2013-03-19 11:12:00,34.0,22.0,-100.00,West,267,2.0,4.0,61,0.00,,,0.01,239.000000,,2013-03-19 17:12:00,
2013-03-19 11:44:00,34.0,22.0,-100.00,West,267,2.0,4.0,61,0.00,,,0.01,239.000000,,2013-03-19 17:44:00,
2013-03-19 11:53:00,34.0,22.0,-100.00,West,267,2.0,4.0,61,0.00,,,0.01,239.000000,,2013-03-19 17:53:00,
2013-03-19 12:02:00,34.0,22.0,-100.00,West,267,2.0,4.0,61,0.00,,,0.01,239.000000,,2013-03-19 18:02:00,
2013-03-19 12:12:00,41.0,25.0,-100.00,North,349,3.0,6.0,52,0.00,,,0.01,272.000000,,2013-03-19 18:12:00,
2013-03-19 12:43:00,41.0,25.0,-100.00,North,349,3.0,6.0,52,0.00,,,0.01,272.000000,,2013-03-19 18:43:00,
2013-03-19 12:53:00,41.0,25.0,-100.00,North,349,3.0,6.0,52,0.00,,,0.01,272.000000,,2013-03-19 18:53:00,
2013-03-19 13:02:00,41.0,25.0,-100.00,North,349,3.0,6.0,52,0.00,,,0.01,272.000000,,2013-03-19 19:02:00,
2013-03-19 13:33:00,44.0,22.0,-100.00,NNW,346,2.0,7.0,41,0.00,,,0.01,382.000000,,2013-03-19 19:33:00,
2013-03-19 13:43:00,44.0,22.0,-100.00,NNW,346,2.0,7.0,41,0.00,,,0.01,382.000000,,2013-03-19 19:43:00,
2013-03-19 13:53:00,44.0,22.0,-100.00,NNW,346,2.0,7.0,41,0.00,,,0.01,382.000000,,2013-03-19 19:53:00,
2013-03-19 14:02:00,44.0,22.0,-100.00,NNW,346,2.0,7.0,41,0.00,,,0.01,382.000000,,2013-03-19 20:02:00,
2013-03-19 14:11:00,44.0,22.0,-100.00,NNW,346,2.0,7.0,41,0.00,,,0.01,382.000000,,2013-03-19 20:11:00,
2013-03-19 14:43:00,44.0,17.0,-100.00,West,264,3.0,9.0,34,0.00,,,0.00,397.000000,,2013-03-19 20:43:00,
2013-03-19 14:53:00,44.0,17.0,-100.00,West,264,3.0,9.0,34,0.00,,,0.00,397.000000,,2013-03-19 20:53:00,
2013-03-19 15:02:00,44.0,17.0,-100.00,West,264,3.0,9.0,34,0.00,,,0.00,397.000000,,2013-03-19 21:02:00,
2013-03-19 15:11:00,44.0,17.0,-100.00,West,264,3.0,9.0,34,0.00,,,0.00,397.000000,,2013-03-19 21:11:00,
2013-03-19 15:12:00,44.0,15.0,-100.00,West,262,4.0,10.0,30,0.00,,,0.00,347.000000,,2013-03-19 21:12:00,
2013-03-19 15:43:00,44.0,15.0,-100.00,West,262,4.0,10.0,30,0.00,,,0.00,347.000000,,2013-03-19 21:43:00,
2013-03-19 15:53:00,44.0,15.0,-100.00,West,262,4.0,10.0,30,0.00,,,0.00,347.000000,,2013-03-19 21:53:00,
2013-03-19 16:03:00,44.0,15.0,-100.00,West,262,4.0,10.0,30,0.00,,,0.00,347.000000,,2013-03-19 22:03:00,
2013-03-19 16:12:00,45.0,23.0,-100.00,NNE,17,2.0,7.0,41,0.00,,,0.00,630.000000,,2013-03-19 22:12:00,
2013-03-19 16:34:00,45.0,23.0,-100.00,NNE,17,2.0,7.0,41,0.00,,,0.00,630.000000,,2013-03-19 22:34:00,
2013-03-19 16:43:00,45.0,23.0,-100.00,NNE,17,2.0,7.0,41,0.00,,,0.00,630.000000,,2013-03-19 22:43:00,
2013-03-19 16:53:00,45.0,23.0,-100.00,NNE,17,2.0,7.0,41,0.00,,,0.00,630.000000,,2013-03-19 22:53:00,
2013-03-19 17:02:00,45.0,23.0,-100.00,NNE,17,2.0,7.0,41,0.00,,,0.00,630.000000,,2013-03-19 23:02:00,
2013-03-19 17:12:00,44.0,19.0,-100.00,North,358,2.0,7.0,36,0.00,,,0.00,465.000000,,2013-03-19 23:12:00,
2013-03-19 17:33:00,44.0,19.0,-100.00,North,358,2.0,7.0,36,0.00,,,0.00,465.000000,,2013-03-19 23:33:00,
2013-03-19 17:43:00,44.0,19.0,-100.00,North,358,2.0,7.0,36,0.00,,,0.00,465.000000,,2013-03-19 23:43:00,
2013-03-19 17:52:00,44.0,19.0,-100.00,North,358,2.0,7.0,36,0.00,,,0.00,465.000000,,2013-03-19 23:52:00,
2013-03-19 18:02:00,44.0,19.0,-100.00,North,358,2.0,7.0,36,0.00,,,0.00,465.000000,,2013-03-20 00:02:00,
2013-03-19 18:33:00,40.0,19.0,-100.00,North,11,2.0,6.0,43,0.00,,,-99.99,257.000000,,2013-03-20 00:33:00,
2013-03-19 18:42:00,40.0,19.0,-100.00,North,11,2.0,6.0,43,0.00,,,-99.99,257.000000,,2013-03-20 00:42:00,
2013-03-19 18:52:00,40.0,19.0,-100.00,North,11,2.0,6.0,43,0.00,,,-99.99,257.000000,,2013-03-20 00:52:00,
2013-03-19 19:02:00,40.0,19.0,-100.00,North,11,2.0,6.0,43,0.00,,,-99.99,257.000000,,2013-03-20 01:02:00,
2013-03-19 19:11:00,40.0,19.0,-100.00,North,11,2.0,6.0,43,0.00,,,-99.99,257.000000,,2013-03-20 01:11:00,
2013-03-19 19:32:00,36.0,24.0,-100.00,NNE,30,1.0,5.0,61,0.00,,,0.00,114.000000,,2013-03-20 01:32:00,
2013-03-19 20:32:00,30.0,24.0,-100.00,ENE,57,2.0,3.0,77,0.00,,,0.00,12.000000,,2013-03-20 02:32:00,
2013-03-19 20:43:00,30.0,24.0,-100.00,ENE,57,2.0,3.0,77,0.00,,,0.00,12.000000,,2013-03-20 02:43:00,
2013-03-19 20:53:00,30.0,24.0,-100.00,ENE,57,2.0,3.0,77,0.00,,,0.00,12.000000,,2013-03-20 02:53:00,
2013-03-19 21:12:00,28.0,25.0,-100.00,NE,51,2.0,3.0,87,0.00,,,0.00,0.000000,,2013-03-20 03:12:00,
2013-03-19 21:34:00,28.0,25.0,-100.00,NE,51,2.0,3.0,87,0.00,,,0.00,0.000000,,2013-03-20 03:34:00,
2013-03-19 21:43:00,28.0,25.0,-100.00,NE,51,2.0,3.0,87,0.00,,,0.00,0.000000,,2013-03-20 03:43:00,
2013-03-19 21:53:00,28.0,25.0,-100.00,NE,51,2.0,3.0,87,0.00,,,0.00,0.000000,,2013-03-20 03:53:00,
2013-03-19 22:02:00,28.0,25.0,-100.00,NE,51,2.0,3.0,87,0.00,,,0.00,0.000000,,2013-03-20 04:02:00,
2013-03-19 22:12:00,27.0,22.0,-100.00,SSE,158,1.0,4.0,82,0.00,,,0.00,0.000000,,2013-03-20 04:12:00,
2013-03-19 22:32:00,27.0,22.0,-100.00,SSE,158,1.0,4.0,82,0.00,,,0.00,0.000000,,2013-03-20 04:32:00,
2013-03-19 22:43:00,27.0,22.0,-100.00,SSE,158,1.0,4.0,82,0.00,,,0.00,0.000000,,2013-03-20 04:43:00,
2013-03-19 22:52:00,27.0,22.0,-100.00,SSE,158,1.0,4.0,82,0.00,,,0.00,0.000000,,2013-03-20 04:52:00,
2013-03-19 23:02:00,27.0,22.0,-100.00,SSE,158,1.0,4.0,82,0.00,,,0.00,0.000000,,2013-03-20 05:02:00,
2013-03-19 23:12:00,25.0,21.0,-100.00,SE,127,0.0,3.0,84,0.00,,,0.00,0.000000,,2013-03-20 05:12:00,
2013-03-19 23:33:00,25.0,21.0,-100.00,SE,127,0.0,3.0,84,0.00,,,0.00,0.000000,,2013-03-20 05:33:00,
2013-03-19 23:43:00,25.0,21.0,-100.00,SE,127,0.0,3.0,84,0.00,,,0.00,0.000000,,2013-03-20 05:43:00,
2013-03-19 23:53:00,25.0,21.0,-100.00,SE,127,0.0,3.0,84,0.00,,,0.00,0.000000,,2013-03-20 05:53:00,